Corona, CA

2:55 PM PST on January 17, 2018 (GMT -0800)
Corona Municipal

Weather History for KAJO - August, 2014

Change the Weather History Date:

Sunday, August 10, 2014

  Actual Average (KCNO) Record (KCNO)
Temperature  
Mean Temperature 74 °F -  
Max Temperature 90 °F 92 °F 104 °F (2003)
Min Temperature 57 °F 58 °F 53 °F (2010)
Cooling Degree Days 8    
Growing Degree Days 24 (Base 50)    
Moisture  
Dew Point 60 °F    
Average Humidity 71    
Maximum Humidity 100    
Minimum Humidity 35    
Precipitation  
Precipitation 0.00 in - - ()
Sea Level Pressure  
Sea Level Pressure 29.94 in    
Wind  
Wind Speed 3 mph (WNW)    
Max Wind Speed 16 mph    
Max Gust Speed 23 mph    
Visibility 6 miles    
Events Fog    
Averages and records for this station are not official NWS values.
T = Trace of Precipitation, MM = Missing Value Source: NWS Daily Summary

Daily Weather History Graph

Daily Weather History Graph

Search for Another Location

Airport or City:

Trip Planner

Search our weather history database for the weather conditions in past years. The results will help you decide how hot, cold, wet, or windy it might be!

Date:

Astronomy

Aug. 10, 2014 Rise Set
Actual Time 6:08 AM PDT 7:42 PM PDT
Civil Twilight 5:41 AM PDT 8:09 PM PDT
Nautical Twilight 5:09 AM PDT 8:41 PM PDT
Astronomical Twilight 4:36 AM PDT 9:14 PM PDT
Moon 7:36 PM PDT (8/10) 6:04 AM PDT (8/10)
Length of Visible Light 14h 27m
Length of Day
13h 33m
Full, 100% of the Moon is Illuminated
Aug 10
Full
Aug 17
Last Quarter
Aug 25
New
Sep 2
First Quarter
Sep 8
Full

Hourly Weather History & Observations

Time (PDT) Temp. Heat Index Dew Point Humidity Pressure Visibility Wind Dir Wind Speed Gust Speed Precip Events Conditions
12:56 AM 61.0 °F - 59.0 °F 93% 29.97 in 7.0 mi Calm Calm - N/A   Clear
1:56 AM 61.9 °F - 59.9 °F 93% 29.96 in 9.0 mi Calm Calm - N/A   Clear
2:56 AM 61.9 °F - 61.0 °F 97% 29.95 in 6.0 mi Calm Calm - N/A   Clear
3:56 AM 61.9 °F - 61.0 °F 97% 29.94 in 4.0 mi Calm Calm - N/A   Clear
4:49 AM 57.2 °F - 57.2 °F 100% 29.95 in 1.0 mi Calm Calm - N/A   Clear
4:56 AM 57.9 °F - 56.8 °F 96% 29.93 in 0.2 mi Calm Calm - N/A Fog Fog
5:04 AM 59.0 °F - 57.2 °F 94% 29.95 in 0.8 mi Calm Calm - N/A   Clear
5:07 AM 59.0 °F - 57.2 °F 94% 29.95 in 1.2 mi Calm Calm - N/A   Clear
5:09 AM 59.0 °F - 57.2 °F 94% 29.95 in 3.0 mi Calm Calm - N/A   Clear
5:56 AM 61.0 °F - 59.9 °F 96% 29.95 in 6.0 mi Calm Calm - N/A   Clear
6:29 AM 57.2 °F - 55.4 °F 94% 29.98 in 2.0 mi Calm Calm - N/A   Clear
6:56 AM 61.0 °F - 59.9 °F 96% 29.97 in 5.0 mi Calm Calm - N/A   Clear
7:56 AM 65.8 °F - 63.0 °F 90% 29.99 in 5.0 mi Calm Calm - N/A   Clear
8:32 AM 69.8 °F - 62.6 °F 78% 30.00 in 1.8 mi Calm Calm - N/A   Haze
8:47 AM 69.8 °F - 62.6 °F 78% 30.00 in 3.0 mi Calm Calm - N/A   Haze
8:56 AM 72.0 °F - 63.0 °F 73% 29.98 in 6.0 mi Calm Calm - N/A   Haze
9:56 AM 77.0 °F - 63.9 °F 64% 29.97 in 10.0 mi Calm Calm - N/A   Clear
10:56 AM 81.9 °F 83.2 °F 63.9 °F 54% 29.97 in 10.0 mi Variable 3.5 mph - N/A   Clear
11:56 AM 86.0 °F 86.8 °F 63.0 °F 46% 29.95 in 10.0 mi West 9.2 mph - N/A   Clear
12:56 PM 88.9 °F 89.1 °F 61.9 °F 40% 29.93 in 10.0 mi West 12.7 mph - N/A   Partly Cloudy
1:56 PM 90.9 °F 91.3 °F 61.9 °F 38% 29.91 in 10.0 mi West 13.8 mph 20.7 mph N/A   Partly Cloudy
2:56 PM 90.9 °F 90.9 °F 61.0 °F 37% 29.89 in 10.0 mi West 15.0 mph - N/A   Partly Cloudy
3:56 PM 90.0 °F 89.1 °F 59.0 °F 35% 29.88 in 10.0 mi NW 15.0 mph 23.0 mph N/A   Clear
4:56 PM 88.0 °F 87.1 °F 59.0 °F 37% 29.87 in 10.0 mi NW 16.1 mph 21.9 mph N/A   Clear
5:56 PM 86.0 °F 85.4 °F 59.0 °F 40% 29.87 in 10.0 mi WNW 13.8 mph 20.7 mph N/A   Clear
6:56 PM 82.9 °F 83.2 °F 59.9 °F 46% 29.87 in 10.0 mi West 11.5 mph - N/A   Clear
7:39 PM 80.6 °F 81.5 °F 60.8 °F 51% 29.90 in 1.8 mi West 8.1 mph 18.4 mph N/A   Haze
7:56 PM 77.9 °F - 61.0 °F 56% 29.88 in 10.0 mi WSW 12.7 mph - N/A   Clear
8:56 PM 75.9 °F - 61.9 °F 62% 29.91 in 4.0 mi WNW 5.8 mph - N/A   Haze
9:56 PM 72.9 °F - 61.9 °F 68% 29.93 in 10.0 mi NNW 3.5 mph - N/A   Clear
10:56 PM 70.9 °F - 61.9 °F 73% 29.93 in 10.0 mi West 4.6 mph - N/A   Clear